DW4362 Weather Reports


Display with metric or nautical units.
time (UTC)temp
F
wind
direction
speed
MPH
gust
MPH
rain 1hr
in
rain 24hr
in
rain mn
in
humidity
%
barometer
mb
20260902180223 93 11 0.0 0.0 0.00 0.00 0.00 64 1015.9
20260902173223 94 91 2.0 5.0 0.00 0.00 0.00 59 1016.3
20260902170223 92 41 0.0 0.0 0.00 0.00 0.00 67 1016.6
20260902163223 91 349 0.0 0.0 0.00 0.00 0.00 69 1016.9
20260902150222 87 260 0.0 2.0 0.00 0.00 0.00 80 1017.0
20260902143222 85 295 2.0 2.0 0.00 0.00 0.00 82 1017.0
20260902140222 83 359 2.0 3.0 0.00 0.00 0.00 88 1016.9
20260902133222 80 17 0.0 0.0 0.00 0.00 0.00 93 1017.1
20260902130221 77 309 0.0 0.0 0.00 0.00 0.00 94 1017.1
20260902123221 74 288 0.0 0.0 0.00 0.00 0.00 94 1017.0
20260902113220 73 278 0.0 0.0 0.00 0.00 0.00 94 1016.4
20260902103220 73 278 0.0 0.0 0.00 0.00 0.00 94 1016.0
20260902100220 73 278 0.0 0.0 0.00 0.00 0.00 95 1016.0
20260902093220 73 278 0.0 0.0 0.00 0.00 0.00 95 1015.8
20260902083220 73 278 0.0 0.0 0.00 0.00 0.00 95 1015.3
20260902080220 73 278 0.0 0.0 0.00 0.00 0.00 95 1015.3
20260902073219 73 278 0.0 0.0 0.00 0.00 0.00 95 1015.3
20260902063219 74 278 0.0 0.0 0.00 0.00 0.00 95 1015.6
20260902060219 74 278 0.0 0.0 0.00 0.00 0.00 95 1015.7
20260902050219 75 278 0.0 0.0 0.00 0.00 0.00 94 1015.7
20260902043219 75 278 0.0 0.0 0.00 0.00 0.00 94 1015.8
20260902040219 76 278 0.0 0.0 0.00 0.00 0.00 93 1016.1
20260902030219 76 278 0.0 0.0 0.00 0.00 0.00 91 1016.1
20260902023219 77 278 0.0 0.0 0.00 0.00 0.00 89 1015.8
20260902020219 78 278 0.0 0.0 0.00 0.00 0.00 87 1015.6
20260902013219 79 278 0.0 0.0 0.00 0.00 0.00 85 1015.2
20260902010219 80 266 0.0 0.0 0.00 0.00 0.00 81 1015.0
20260902003219 81 266 0.0 0.0 0.00 0.00 0.00 78 1015.0
20260902000219 82 88 0.0 0.0 0.00 0.00 0.00 84 1014.8
20260901230218 85 88 0.0 0.0 0.00 0.00 0.00 79 1014.8
20260901220218 92 233 0.0 0.0 0.00 0.00 0.00 66 1014.5
20260901213218 94 212 2.0 2.0 0.00 0.00 0.00 62 1014.5
20260901210218 94 65 0.0 0.0 0.00 0.00 0.00 61 1014.6
20260901200217 94 217 0.0 0.0 0.00 0.00 0.00 62 1014.8
20260901193218 93 259 0.0 2.0 0.00 0.00 0.00 64 1015.0
20260901190218 90 208 0.0 0.0 0.00 0.00 0.00 72 1015.4
20260901183217 91 290 0.0 2.0 0.00 0.00 0.00 66 1015.9